| time (UTC) | temp F | wind direction | speed MPH | gust MPH | rain 1hr in | rain 24hr in | rain mn in | humidity % | barometer mb |
| 20260508050042 | 56 | 331 | 0.0 | 3.0 | 0.00 | 2.17 | 0.00 | 90 | 1015.3 |
| 20260508045531 | 57 | 0 | 0.0 | 3.0 | 0.00 | 2.33 | 0.00 | 90 | 1015.4 |
| 20260508045030 | 57 | 333 | 0.0 | 2.0 | 0.00 | 2.33 | 0.00 | 90 | 1015.3 |
| 20260508044536 | 57 | 0 | 0.0 | 2.0 | 0.00 | 2.33 | 0.00 | 90 | 1015.2 |
| 20260508044031 | 57 | 0 | 0.0 | 2.0 | 0.00 | 2.33 | 0.00 | 90 | 1015.2 |
| 20260508043533 | 57 | 0 | 0.0 | 2.0 | 0.00 | 2.33 | 0.00 | 90 | 1015.2 |
| 20260508043049 | 57 | 0 | 0.0 | 2.0 | 0.00 | 2.33 | 0.00 | 90 | 1015.1 |
| 20260508042532 | 57 | 0 | 0.0 | 2.0 | 0.00 | 2.33 | 0.00 | 90 | 1015.1 |
| 20260508042031 | 57 | 340 | 0.0 | 2.0 | 0.00 | 2.33 | 0.00 | 90 | 1015.1 |
| 20260508041541 | 57 | 0 | 0.0 | 2.0 | 0.00 | 2.33 | 0.00 | 90 | 1015.1 |
| 20260508041030 | 57 | 340 | 0.0 | 4.0 | 0.00 | 2.33 | 0.00 | 90 | 1015.1 |
| 20260508040533 | 57 | 0 | 0.0 | 4.0 | 0.00 | 2.33 | 0.00 | 89 | 1014.8 |
| 20260508040051 | 57 | 0 | 0.0 | 1.0 | 0.00 | 2.33 | 0.00 | 89 | 1014.9 |
| 20260508035534 | 57 | 0 | 0.0 | 0.0 | 0.00 | 2.48 | 2.33 | 90 | 1014.7 |
| 20260508035033 | 57 | 0 | 0.0 | 1.0 | 0.00 | 2.48 | 2.33 | 89 | 1014.7 |
| 20260508034549 | 57 | 0 | 0.0 | 2.0 | 0.00 | 2.48 | 2.33 | 89 | 1014.9 |
| 20260508034030 | 57 | 0 | 0.0 | 2.0 | 0.00 | 2.48 | 2.33 | 89 | 1014.7 |
| 20260508033530 | 57 | 0 | 0.0 | 2.0 | 0.00 | 2.48 | 2.33 | 89 | 1014.7 |
| 20260508033109 | 57 | 0 | 0.0 | 0.0 | 0.00 | 2.48 | 2.33 | 89 | 1014.9 |
| 20260508032531 | 57 | 0 | 0.0 | 0.0 | 0.00 | 2.48 | 2.33 | 88 | 1014.8 |
| 20260508032032 | 58 | 0 | 0.0 | 0.0 | 0.00 | 2.48 | 2.33 | 88 | 1014.9 |
| 20260508031541 | 58 | 0 | 0.0 | 0.0 | 0.00 | 2.48 | 2.33 | 88 | 1014.8 |
| 20260508031031 | 58 | 0 | 0.0 | 2.0 | 0.00 | 2.48 | 2.33 | 88 | 1014.8 |
| 20260508030531 | 58 | 0 | 0.0 | 2.0 | 0.00 | 2.48 | 2.33 | 88 | 1014.9 |
| 20260508030040 | 58 | 0 | 0.0 | 2.0 | 0.00 | 2.48 | 2.33 | 88 | 1014.7 |
| 20260508025531 | 58 | 0 | 0.0 | 0.0 | 0.00 | 2.61 | 2.33 | 88 | 1014.6 |
| 20260508025030 | 58 | 0 | 0.0 | 0.0 | 0.00 | 2.61 | 2.33 | 88 | 1014.6 |
| 20260508024537 | 58 | 0 | 0.0 | 0.0 | 0.00 | 2.61 | 2.33 | 88 | 1014.5 |
| 20260508024031 | 58 | 0 | 0.0 | 0.0 | 0.00 | 2.61 | 2.33 | 87 | 1014.6 |
| 20260508023531 | 59 | 0 | 0.0 | 0.0 | 0.00 | 2.61 | 2.33 | 87 | 1014.6 |
| 20260508023043 | 59 | 0 | 0.0 | 0.0 | 0.00 | 2.61 | 2.33 | 87 | 1014.7 |
| 20260508022531 | 59 | 0 | 0.0 | 0.0 | 0.00 | 2.61 | 2.33 | 87 | 1014.6 |
| 20260508022032 | 59 | 0 | 0.0 | 0.0 | 0.00 | 2.61 | 2.33 | 87 | 1014.7 |
| 20260508021541 | 59 | 0 | 0.0 | 0.0 | 0.00 | 2.61 | 2.33 | 86 | 1014.6 |
| 20260508021031 | 59 | 0 | 0.0 | 1.0 | 0.00 | 2.61 | 2.33 | 86 | 1014.6 |
| 20260508020530 | 59 | 0 | 0.0 | 1.0 | 0.00 | 2.61 | 2.33 | 85 | 1014.4 |
| 20260508020041 | 60 | 0 | 0.0 | 1.0 | 0.00 | 2.61 | 2.33 | 85 | 1014.4 |
| 20260508015531 | 60 | 0 | 0.0 | 0.0 | 0.00 | 2.74 | 2.33 | 85 | 1014.4 |
| 20260508015032 | 60 | 0 | 0.0 | 0.0 | 0.00 | 2.74 | 2.33 | 84 | 1014.3 |
| 20260508014540 | 60 | 0 | 0.0 | 0.0 | 0.00 | 2.74 | 2.33 | 84 | 1014.3 |
| 20260508014031 | 61 | 0 | 0.0 | 0.0 | 0.00 | 2.74 | 2.33 | 84 | 1014.2 |
| 20260508013531 | 61 | 0 | 0.0 | 0.0 | 0.00 | 2.74 | 2.33 | 84 | 1014.1 |
| 20260508013042 | 61 | 0 | 0.0 | 0.0 | 0.00 | 2.74 | 2.33 | 83 | 1014.1 |
| 20260508012531 | 61 | 0 | 0.0 | 0.0 | 0.00 | 2.74 | 2.33 | 83 | 1013.9 |
| 20260508012031 | 61 | 0 | 0.0 | 0.0 | 0.00 | 2.74 | 2.33 | 82 | 1014.2 |
| 20260508011545 | 61 | 0 | 0.0 | 0.0 | 0.00 | 2.74 | 2.33 | 82 | 1014.1 |
| 20260508011032 | 61 | 0 | 0.0 | 1.0 | 0.00 | 2.74 | 2.33 | 82 | 1014.1 |
| 20260508010531 | 62 | 0 | 0.0 | 1.0 | 0.00 | 2.74 | 2.33 | 82 | 1014.0 |
| 20260508010042 | 62 | 0 | 0.0 | 3.0 | 0.00 | 2.74 | 2.33 | 82 | 1013.9 |
| 20260508005531 | 62 | 0 | 0.0 | 3.0 | 0.00 | 2.92 | 2.33 | 82 | 1013.9 |
| 20260508005031 | 62 | 347 | 1.0 | 4.0 | 0.00 | 2.92 | 2.33 | 82 | 1013.9 |
| 20260508004542 | 62 | 0 | 1.0 | 5.0 | 0.01 | 2.92 | 2.33 | 82 | 1013.9 |
| 20260508004032 | 62 | 0 | 2.0 | 5.0 | 0.01 | 2.92 | 2.33 | 82 | 1013.8 |
| 20260508003531 | 62 | 328 | 1.0 | 5.0 | 0.01 | 2.92 | 2.33 | 81 | 1013.7 |
| 20260508003040 | 63 | 0 | 1.0 | 5.0 | 0.01 | 2.92 | 2.33 | 82 | 1013.7 |
| 20260508002530 | 63 | 264 | 0.0 | 3.0 | 0.01 | 2.92 | 2.33 | 82 | 1013.7 |
| 20260508002034 | 63 | 0 | 1.0 | 5.0 | 0.01 | 2.92 | 2.33 | 82 | 1013.6 |
| 20260508001540 | 63 | 261 | 2.0 | 5.0 | 0.01 | 2.92 | 2.33 | 82 | 1013.5 |
| 20260508001030 | 63 | 324 | 1.0 | 5.0 | 0.02 | 2.92 | 2.33 | 82 | 1013.5 |
| 20260508000533 | 63 | 0 | 0.0 | 4.0 | 0.02 | 2.92 | 2.33 | 82 | 1013.4 |
| 20260508000047 | 63 | 0 | 0.0 | 4.0 | 0.02 | 2.92 | 2.33 | 82 | 1013.3 |
| 20260507235534 | 63 | 310 | 1.0 | 4.0 | 0.02 | 3.23 | 2.33 | 81 | 1013.3 |
| 20260507235031 | 63 | 0 | 0.0 | 3.0 | 0.02 | 3.23 | 2.33 | 81 | 1013.4 |
| 20260507234549 | 63 | 0 | 1.0 | 3.0 | 0.02 | 3.22 | 2.33 | 81 | 1013.3 |
| 20260507234031 | 64 | 0 | 0.0 | 7.0 | 0.02 | 3.22 | 2.33 | 81 | 1013.2 |
| 20260507233531 | 64 | 311 | 2.0 | 7.0 | 0.02 | 3.22 | 2.33 | 81 | 1013.3 |
| 20260507233042 | 64 | 292 | 2.0 | 5.0 | 0.02 | 3.22 | 2.33 | 80 | 1013.2 |
| 20260507232532 | 64 | 321 | 0.0 | 5.0 | 0.02 | 3.22 | 2.33 | 80 | 1013.2 |
| 20260507232031 | 64 | 316 | 2.0 | 8.0 | 0.03 | 3.22 | 2.33 | 80 | 1013.2 |
| 20260507231547 | 64 | 328 | 2.0 | 8.0 | 0.03 | 3.22 | 2.33 | 80 | 1013.0 |
| 20260507231032 | 64 | 315 | 3.0 | 9.0 | 0.02 | 3.21 | 2.32 | 79 | 1013.1 |
| 20260507230531 | 65 | 317 | 0.0 | 9.0 | 0.02 | 3.21 | 2.32 | 79 | 1013.1 |
| 20260507230042 | 65 | 294 | 2.0 | 9.0 | 0.03 | 3.21 | 2.32 | 79 | 1013.1 |
| 20260507225530 | 65 | 312 | 2.0 | 8.0 | 0.03 | 3.23 | 2.32 | 79 | 1013.1 |
| 20260507225033 | 65 | 330 | 3.0 | 8.0 | 0.03 | 3.23 | 2.32 | 79 | 1013.0 |
| 20260507224547 | 65 | 350 | 2.0 | 8.0 | 0.03 | 3.22 | 2.31 | 79 | 1012.9 |
| 20260507224030 | 65 | 0 | 2.0 | 8.0 | 0.03 | 3.22 | 2.31 | 79 | 1013.0 |
| 20260507223532 | 65 | 309 | 1.0 | 6.0 | 0.03 | 3.22 | 2.31 | 80 | 1013.0 |
| 20260507223042 | 66 | 0 | 0.0 | 9.0 | 0.03 | 3.22 | 2.31 | 79 | 1012.8 |
| 20260507222530 | 66 | 291 | 2.0 | 9.0 | 0.04 | 3.22 | 2.31 | 78 | 1012.8 |
| 20260507222030 | 65 | 339 | 2.0 | 9.0 | 0.03 | 3.21 | 2.30 | 79 | 1012.6 |
| 20260507221541 | 65 | 318 | 4.0 | 9.0 | 0.03 | 3.21 | 2.30 | 80 | 1012.7 |
| 20260507221033 | 65 | 11 | 2.0 | 8.0 | 0.04 | 3.21 | 2.30 | 81 | 1012.7 |
| 20260507220530 | 65 | 242 | 2.0 | 8.0 | 0.03 | 3.20 | 2.29 | 81 | 1012.8 |
| 20260507220040 | 65 | 0 | 2.0 | 5.0 | 0.04 | 3.20 | 2.29 | 81 | 1012.7 |
| 20260507215531 | 65 | 5 | 2.0 | 10.0 | 0.04 | 3.20 | 2.29 | 81 | 1012.7 |
| 20260507215031 | 65 | 0 | 3.0 | 10.0 | 0.04 | 3.20 | 2.29 | 81 | 1012.5 |
| 20260507214540 | 65 | 338 | 2.0 | 8.0 | 0.04 | 3.19 | 2.28 | 81 | 1012.5 |
| 20260507214031 | 65 | 323 | 3.0 | 8.0 | 0.04 | 3.19 | 2.28 | 81 | 1012.6 |
| 20260507213530 | 65 | 275 | 2.0 | 8.0 | 0.05 | 3.19 | 2.28 | 81 | 1012.4 |
| 20260507213053 | 65 | 344 | 3.0 | 8.0 | 0.05 | 3.19 | 2.28 | 81 | 1012.5 |
| 20260507212531 | 65 | 300 | 2.0 | 8.0 | 0.05 | 3.18 | 2.27 | 81 | 1012.4 |
| 20260507212032 | 65 | 311 | 1.0 | 6.0 | 0.05 | 3.18 | 2.27 | 82 | 1012.6 |
| 20260507211543 | 65 | 360 | 1.0 | 10.0 | 0.05 | 3.17 | 2.26 | 83 | 1012.4 |
| 20260507211031 | 65 | 286 | 2.0 | 10.0 | 0.05 | 3.17 | 2.26 | 82 | 1012.4 |
| 20260507210529 | 65 | 221 | 4.0 | 10.0 | 0.06 | 3.17 | 2.26 | 81 | 1012.2 |
| 20260507210045 | 66 | 231 | 3.0 | 10.0 | 0.06 | 3.16 | 2.25 | 81 | 1012.1 |
| 20260507205529 | 66 | 220 | 4.0 | 10.0 | 0.06 | 3.16 | 2.25 | 82 | 1012.3 |
| 20260507205028 | 65 | 5 | 3.0 | 10.0 | 0.06 | 3.15 | 2.24 | 81 | 1012.4 |
| 20260507204542 | 65 | 213 | 4.0 | 10.0 | 0.06 | 3.15 | 2.24 | 82 | 1012.3 |
| 20260507204028 | 65 | 9 | 3.0 | 10.0 | 0.07 | 3.15 | 2.24 | 82 | 1012.3 |
| 20260507203530 | 65 | 333 | 3.0 | 9.0 | 0.07 | 3.14 | 2.23 | 83 | 1012.3 |
| 20260507203044 | 64 | 340 | 4.0 | 11.0 | 0.07 | 3.14 | 2.23 | 83 | 1012.4 |
| 20260507202531 | 64 | 22 | 2.0 | 11.0 | 0.07 | 3.13 | 2.22 | 84 | 1012.3 |
| 20260507202031 | 64 | 351 | 2.0 | 8.0 | 0.08 | 3.13 | 2.22 | 84 | 1012.3 |
| 20260507201539 | 64 | 315 | 2.0 | 10.0 | 0.07 | 3.12 | 2.21 | 84 | 1012.4 |
| 20260507201032 | 64 | 304 | 2.0 | 10.0 | 0.07 | 3.11 | 2.20 | 84 | 1012.5 |
| 20260507200532 | 64 | 289 | 3.0 | 11.0 | 0.08 | 3.11 | 2.20 | 84 | 1012.8 |
| 20260507200043 | 65 | 119 | 3.0 | 11.0 | 0.08 | 3.10 | 2.19 | 84 | 1012.6 |
| 20260507195531 | 65 | 351 | 3.0 | 11.0 | 0.08 | 3.10 | 2.19 | 85 | 1012.4 |
| 20260507195031 | 64 | 182 | 3.0 | 10.0 | 0.08 | 3.09 | 2.18 | 85 | 1012.5 |
| 20260507194540 | 64 | 0 | 2.0 | 10.0 | 0.08 | 3.08 | 2.17 | 86 | 1012.5 |
| 20260507194028 | 64 | 323 | 3.0 | 10.0 | 0.09 | 3.08 | 2.17 | 85 | 1012.5 |
| 20260507193528 | 64 | 307 | 1.0 | 10.0 | 0.09 | 3.07 | 2.16 | 86 | 1012.6 |
| 20260507193050 | 64 | 313 | 3.0 | 10.0 | 0.09 | 3.07 | 2.16 | 85 | 1012.7 |
| 20260507192528 | 64 | 285 | 4.0 | 11.0 | 0.09 | 3.06 | 2.15 | 86 | 1012.6 |
| 20260507192032 | 64 | 352 | 3.0 | 11.0 | 0.09 | 3.05 | 2.14 | 86 | 1012.7 |
| 20260507191540 | 64 | 329 | 2.0 | 9.0 | 0.10 | 3.05 | 2.14 | 86 | 1012.7 |
| 20260507191029 | 64 | 267 | 2.0 | 6.0 | 0.10 | 3.04 | 2.13 | 87 | 1012.6 |
| 20260507190532 | 64 | 315 | 2.0 | 10.0 | 0.10 | 3.03 | 2.11 | 87 | 1012.6 |
| 20260507190037 | 63 | 319 | 2.0 | 11.0 | 0.10 | 3.02 | 2.10 | 88 | 1012.7 |
| 20260507185531 | 64 | 269 | 4.0 | 11.0 | 0.10 | 3.02 | 2.10 | 87 | 1012.7 |
| 20260507185029 | 64 | 286 | 2.0 | 8.0 | 0.10 | 3.01 | 2.09 | 88 | 1012.8 |
| 20260507184542 | 63 | 219 | 2.0 | 10.0 | 0.10 | 3.00 | 2.08 | 88 | 1012.7 |
| 20260507184028 | 63 | 294 | 3.0 | 10.0 | 0.10 | 2.99 | 2.08 | 89 | 1012.9 |
| 20260507183528 | 62 | 243 | 2.0 | 8.0 | 0.10 | 2.98 | 2.07 | 90 | 1012.9 |
| 20260507183044 | 62 | 265 | 3.0 | 8.0 | 0.11 | 2.98 | 2.07 | 89 | 1012.9 |
| 20260507182531 | 62 | 280 | 3.0 | 9.0 | 0.11 | 2.97 | 2.06 | 91 | 1012.9 |
| 20260507182029 | 62 | 311 | 2.0 | 10.0 | 0.11 | 2.96 | 2.05 | 90 | 1013.0 |
| 20260507181540 | 62 | 300 | 5.0 | 10.0 | 0.11 | 2.95 | 2.04 | 90 | 1013.2 |
| 20260507181029 | 62 | 335 | 4.0 | 10.0 | 0.11 | 2.94 | 2.03 | 90 | 1013.2 |
| 20260507180531 | 62 | 342 | 2.0 | 6.0 | 0.10 | 2.93 | 2.02 | 91 | 1013.1 |
| 20260507180039 | 62 | 309 | 2.0 | 10.0 | 0.10 | 2.92 | 2.01 | 91 | 1013.0 |
| 20260507175531 | 62 | 323 | 1.0 | 10.0 | 0.10 | 2.91 | 2.00 | 91 | 1013.1 |
| 20260507175028 | 62 | 242 | 4.0 | 12.0 | 0.11 | 2.91 | 2.00 | 90 | 1013.0 |
| 20260507174538 | 62 | 321 | 5.0 | 12.0 | 0.11 | 2.90 | 1.99 | 91 | 1013.1 |
| 20260507174030 | 63 | 336 | 2.0 | 10.0 | 0.11 | 2.89 | 1.98 | 91 | 1013.0 |
| 20260507173528 | 63 | 321 | 2.0 | 10.0 | 0.12 | 2.88 | 1.97 | 91 | 1013.1 |
| 20260507173045 | 63 | 277 | 2.0 | 13.0 | 0.12 | 2.87 | 1.96 | 92 | 1013.0 |
| 20260507172530 | 63 | 315 | 3.0 | 14.0 | 0.12 | 2.86 | 1.95 | 91 | 1012.9 |
| 20260507172032 | 63 | 306 | 5.0 | 14.0 | 0.12 | 2.85 | 1.94 | 91 | 1013.0 |
| 20260507171555 | 63 | 336 | 3.0 | 12.0 | 0.12 | 2.84 | 1.93 | 91 | 1013.0 |
| 20260507171034 | 64 | 257 | 3.0 | 11.0 | 0.12 | 2.83 | 1.92 | 90 | 1012.8 |
| 20260507170533 | 64 | 329 | 3.0 | 11.0 | 0.12 | 2.82 | 1.91 | 90 | 1012.8 |
| 20260507170044 | 64 | 319 | 3.0 | 10.0 | 0.12 | 2.81 | 1.90 | 92 | 1012.7 |
| 20260507165528 | 64 | 276 | 4.0 | 9.0 | 0.12 | 2.80 | 1.89 | 92 | 1012.7 |
| 20260507165030 | 64 | 289 | 3.0 | 9.0 | 0.14 | 2.80 | 1.89 | 91 | 1012.6 |
| 20260507164539 | 64 | 275 | 2.0 | 9.0 | 0.13 | 2.78 | 1.87 | 92 | 1012.5 |
| 20260507164029 | 64 | 195 | 3.0 | 13.0 | 0.13 | 2.77 | 1.86 | 92 | 1012.6 |
| 20260507163528 | 64 | 320 | 1.0 | 13.0 | 0.13 | 2.76 | 1.85 | 92 | 1012.5 |
| 20260507163039 | 64 | 351 | 4.0 | 13.0 | 0.14 | 2.75 | 1.84 | 93 | 1012.7 |
| 20260507162528 | 64 | 309 | 2.0 | 8.0 | 0.14 | 2.74 | 1.83 | 93 | 1012.4 |
| 20260507162032 | 64 | 277 | 2.0 | 9.0 | 0.14 | 2.73 | 1.82 | 93 | 1012.4 |
| 20260507161540 | 64 | 325 | 3.0 | 9.0 | 0.15 | 2.72 | 1.81 | 93 | 1012.6 |
| 20260507161028 | 64 | 309 | 3.0 | 8.0 | 0.15 | 2.71 | 1.80 | 93 | 1012.6 |
| 20260507160528 | 64 | 348 | 3.0 | 11.0 | 0.16 | 2.70 | 1.79 | 94 | 1012.4 |
| 20260507160047 | 64 | 326 | 2.0 | 12.0 | 0.16 | 2.69 | 1.78 | 94 | 1012.4 |
| 20260507155529 | 64 | 352 | 3.0 | 12.0 | 0.15 | 2.67 | 1.76 | 94 | 1012.3 |
| 20260507155031 | 64 | 324 | 3.0 | 11.0 | 0.16 | 2.66 | 1.75 | 94 | 1012.3 |
| 20260507154542 | 64 | 299 | 5.0 | 11.0 | 0.16 | 2.65 | 1.74 | 94 | 1012.2 |
| 20260507154031 | 64 | 5 | 1.0 | 4.0 | 0.16 | 2.64 | 1.73 | 95 | 1012.1 |
| 20260507153530 | 64 | 192 | 1.0 | 5.0 | 0.16 | 2.62 | 1.71 | 95 | 1012.0 |
| 20260507153038 | 64 | 307 | 1.0 | 6.0 | 0.16 | 2.61 | 1.70 | 95 | 1012.0 |
| 20260507152528 | 64 | 314 | 2.0 | 9.0 | 0.17 | 2.60 | 1.69 | 95 | 1011.9 |
| 20260507152028 | 64 | 323 | 2.0 | 9.0 | 0.16 | 2.58 | 1.67 | 95 | 1011.9 |
| 20260507151544 | 64 | 232 | 1.0 | 6.0 | 0.16 | 2.57 | 1.66 | 95 | 1012.0 |
| 20260507151029 | 64 | 317 | 2.0 | 9.0 | 0.17 | 2.56 | 1.65 | 95 | 1011.8 |
| 20260507150531 | 64 | 296 | 2.0 | 9.0 | 0.16 | 2.54 | 1.63 | 95 | 1011.9 |
| 20260507150041 | 64 | 303 | 2.0 | 8.0 | 0.17 | 2.53 | 1.62 | 95 | 1011.7 |
| 20260507145534 | 64 | 319 | 2.0 | 8.0 | 0.17 | 2.52 | 1.61 | 95 | 1011.8 |
| 20260507145028 | 64 | 276 | 2.0 | 8.0 | 0.17 | 2.50 | 1.59 | 95 | 1012.0 |
| 20260507144604 | 64 | 319 | 2.0 | 7.0 | 0.17 | 2.49 | 1.58 | 95 | 1011.6 |
| 20260507144033 | 64 | 13 | 2.0 | 7.0 | 0.16 | 2.47 | 1.56 | 96 | 1011.6 |
| 20260507143528 | 64 | 0 | 1.0 | 7.0 | 0.16 | 2.46 | 1.55 | 96 | 1011.8 |
| 20260507143040 | 64 | 306 | 1.0 | 7.0 | 0.17 | 2.45 | 1.54 | 96 | 1011.8 |
| 20260507142528 | 64 | 301 | 2.0 | 6.0 | 0.16 | 2.43 | 1.52 | 96 | 1011.8 |
| 20260507142031 | 64 | 317 | 2.0 | 8.0 | 0.16 | 2.42 | 1.51 | 96 | 1011.8 |
| 20260507141542 | 63 | 329 | 3.0 | 8.0 | 0.15 | 2.40 | 1.49 | 96 | 1011.8 |
| 20260507141028 | 63 | 331 | 1.0 | 7.0 | 0.15 | 2.39 | 1.48 | 96 | 1011.8 |
| 20260507140534 | 63 | 263 | 1.0 | 7.0 | 0.14 | 2.36 | 1.46 | 96 | 1012.0 |
| 20260507140039 | 64 | 350 | 2.0 | 5.0 | 0.15 | 2.35 | 1.45 | 96 | 1012.0 |
| 20260507135528 | 64 | 334 | 1.0 | 4.0 | 0.15 | 2.34 | 1.44 | 96 | 1012.0 |
| 20260507135028 | 64 | 39 | 2.0 | 4.0 | 0.14 | 2.33 | 1.42 | 96 | 1012.0 |
| 20260507134550 | 63 | 321 | 1.0 | 5.0 | 0.14 | 2.32 | 1.41 | 96 | 1011.7 |
| 20260507134031 | 63 | 318 | 0.0 | 5.0 | 0.14 | 2.31 | 1.40 | 96 | 1012.0 |
| 20260507133533 | 63 | 317 | 1.0 | 5.0 | 0.14 | 2.30 | 1.39 | 96 | 1011.9 |
| 20260507133041 | 63 | 227 | 0.0 | 4.0 | 0.14 | 2.28 | 1.37 | 96 | 1012.1 |
| 20260507132530 | 63 | 227 | 1.0 | 4.0 | 0.14 | 2.27 | 1.36 | 96 | 1011.9 |
| 20260507132030 | 63 | 227 | 1.0 | 4.0 | 0.14 | 2.26 | 1.35 | 96 | 1011.9 |
| 20260507131543 | 63 | 229 | 2.0 | 4.0 | 0.14 | 2.25 | 1.34 | 96 | 1011.9 |
| 20260507131028 | 63 | 171 | 0.0 | 2.0 | 0.14 | 2.24 | 1.33 | 96 | 1011.1 |
| 20260507130534 | 63 | 0 | 0.0 | 2.0 | 0.14 | 2.22 | 1.31 | 96 | 1011.2 |
| 20260507130037 | 63 | 0 | 0.0 | 1.0 | 0.14 | 2.21 | 1.30 | 96 | 1010.7 |
| 20260507125531 | 63 | 0 | 0.0 | 3.0 | 0.14 | 2.20 | 1.29 | 96 | 1010.8 |
| 20260507125030 | 63 | 0 | 0.0 | 3.0 | 0.14 | 2.19 | 1.28 | 96 | 1011.1 |
| 20260507124542 | 63 | 101 | 2.0 | 3.0 | 0.14 | 2.18 | 1.27 | 96 | 1010.7 |
| 20260507124033 | 63 | 0 | 0.0 | 2.0 | 0.14 | 2.17 | 1.26 | 96 | 1011.2 |
| 20260507123528 | 63 | 103 | 0.0 | 2.0 | 0.13 | 2.15 | 1.24 | 96 | 1011.1 |
| 20260507123044 | 63 | 103 | 0.0 | 6.0 | 0.13 | 2.14 | 1.23 | 96 | 1011.0 |
| 20260507122530 | 63 | 103 | 0.0 | 6.0 | 0.13 | 2.13 | 1.22 | 96 | 1010.8 |
| 20260507122030 | 63 | 64 | 1.0 | 4.0 | 0.13 | 2.11 | 1.21 | 96 | 1010.6 |
| 20260507121540 | 63 | 0 | 1.0 | 5.0 | 0.13 | 2.10 | 1.20 | 96 | 1011.2 |
| 20260507121031 | 63 | 269 | 1.0 | 8.0 | 0.13 | 2.09 | 1.19 | 96 | 1012.0 |
| 20260507120532 | 63 | 311 | 3.0 | 8.0 | 0.12 | 2.08 | 1.16 | 96 | 1011.7 |
| 20260507120039 | 63 | 323 | 2.0 | 8.0 | 0.13 | 2.07 | 1.16 | 96 | 1011.0 |
| 20260507115530 | 63 | 325 | 2.0 | 11.0 | 0.13 | 2.06 | 1.15 | 96 | 1011.0 |
| 20260507115028 | 63 | 325 | 4.0 | 11.0 | 0.13 | 2.05 | 1.14 | 96 | 1011.2 |
| 20260507114536 | 63 | 333 | 3.0 | 6.0 | 0.13 | 2.04 | 1.13 | 96 | 1011.3 |
| 20260507114030 | 63 | 335 | 2.0 | 6.0 | 0.13 | 2.03 | 1.12 | 96 | 1010.8 |
| 20260507113527 | 63 | 45 | 2.0 | 7.0 | 0.13 | 2.02 | 1.11 | 96 | 1010.6 |
| 20260507113044 | 63 | 5 | 1.0 | 7.0 | 0.13 | 2.01 | 1.10 | 96 | 1010.5 |
| 20260507112530 | 63 | 57 | 3.0 | 8.0 | 0.13 | 2.00 | 1.09 | 95 | 1009.9 |
| 20260507112031 | 63 | 32 | 2.0 | 8.0 | 0.13 | 1.99 | 1.08 | 95 | 1009.9 |
| 20260507111544 | 63 | 42 | 1.0 | 9.0 | 0.13 | 1.98 | 1.07 | 95 | 1009.9 |
| 20260507111033 | 63 | 14 | 2.0 | 9.0 | 0.11 | 1.96 | 1.04 | 95 | 1009.9 |
| 20260507110531 | 63 | 41 | 2.0 | 9.0 | 0.11 | 1.95 | 1.04 | 95 | 1009.8 |
| 20260507110041 | 63 | 59 | 3.0 | 7.0 | 0.11 | 1.94 | 1.03 | 95 | 1009.7 |
| 20260507105529 | 63 | 333 | 2.0 | 10.0 | 0.11 | 1.93 | 1.02 | 95 | 1009.9 |
| 20260507105031 | 63 | 352 | 4.0 | 12.0 | 0.11 | 1.92 | 1.01 | 95 | 1009.9 |
| 20260507104540 | 63 | 328 | 6.0 | 12.0 | 0.11 | 1.91 | 1.00 | 95 | 1010.0 |
| 20260507104027 | 63 | 329 | 4.0 | 9.0 | 0.11 | 1.90 | 0.99 | 95 | 1009.8 |
| 20260507103532 | 63 | 337 | 1.0 | 5.0 | 0.11 | 1.89 | 0.98 | 95 | 1009.9 |
| 20260507103041 | 63 | 0 | 0.0 | 0.0 | 0.11 | 1.88 | 0.97 | 95 | 1009.7 |
| 20260507102530 | 63 | 0 | 0.0 | 0.0 | 0.11 | 1.87 | 0.96 | 95 | 1009.6 |
| 20260507102029 | 63 | 0 | 0.0 | 0.0 | 0.11 | 1.86 | 0.95 | 95 | 1009.6 |
| 20260507101548 | 63 | 0 | 0.0 | 0.0 | 0.11 | 1.85 | 0.94 | 95 | 1009.4 |
| 20260507101031 | 63 | 0 | 0.0 | 0.0 | 0.11 | 1.84 | 0.93 | 95 | 1009.4 |
| 20260507100530 | 63 | 0 | 0.0 | 0.0 | 0.12 | 1.84 | 0.93 | 95 | 1009.5 |
| 20260507100045 | 63 | 0 | 0.0 | 0.0 | 0.12 | 1.83 | 0.92 | 95 | 1009.3 |
| 20260507095530 | 63 | 0 | 0.0 | 0.0 | 0.12 | 1.82 | 0.91 | 95 | 1009.5 |
| 20260507095030 | 63 | 0 | 0.0 | 1.0 | 0.12 | 1.81 | 0.90 | 95 | 1009.4 |
| 20260507094546 | 63 | 0 | 0.0 | 3.0 | 0.13 | 1.80 | 0.89 | 95 | 1009.7 |
| 20260507094030 | 63 | 0 | 0.0 | 3.0 | 0.13 | 1.79 | 0.88 | 95 | 1009.6 |
| 20260507093530 | 63 | 0 | 0.0 | 0.0 | 0.13 | 1.78 | 0.87 | 95 | 1009.8 |
| 20260507093044 | 63 | 0 | 0.0 | 0.0 | 0.13 | 1.77 | 0.86 | 95 | 1009.9 |
| 20260507092531 | 63 | 0 | 0.0 | 0.0 | 0.13 | 1.76 | 0.85 | 95 | 1009.8 |
| 20260507092030 | 63 | 0 | 0.0 | 0.0 | 0.13 | 1.75 | 0.84 | 95 | 1010.0 |
| 20260507091545 | 63 | 0 | 0.0 | 0.0 | 0.13 | 1.74 | 0.83 | 95 | 1010.0 |
| 20260507091032 | 63 | 0 | 0.0 | 1.0 | 0.13 | 1.73 | 0.82 | 95 | 1010.1 |
| 20260507090534 | 63 | 0 | 0.0 | 1.0 | 0.14 | 1.72 | 0.81 | 95 | 1010.0 |
| 20260507090043 | 63 | 0 | 0.0 | 2.0 | 0.14 | 1.71 | 0.80 | 95 | 1010.2 |
| 20260507085533 | 63 | 0 | 0.0 | 2.0 | 0.14 | 1.70 | 0.79 | 95 | 1009.9 |
| 20260507085031 | 63 | 97 | 1.0 | 3.0 | 0.13 | 1.68 | 0.77 | 95 | 1009.7 |
| 20260507084545 | 63 | 97 | 1.0 | 3.0 | 0.14 | 1.67 | 0.76 | 95 | 1010.1 |
| 20260507084032 | 63 | 97 | 0.0 | 3.0 | 0.14 | 1.66 | 0.75 | 95 | 1010.5 |
| 20260507083532 | 63 | 0 | 0.0 | 1.0 | 0.14 | 1.65 | 0.74 | 95 | 1010.7 |
| 20260507083040 | 63 | 97 | 0.0 | 1.0 | 0.14 | 1.64 | 0.73 | 95 | 1010.8 |
| 20260507082532 | 63 | 0 | 0.0 | 0.0 | 0.14 | 1.63 | 0.72 | 95 | 1010.8 |
| 20260507082032 | 63 | 0 | 0.0 | 3.0 | 0.15 | 1.62 | 0.71 | 95 | 1010.8 |
| 20260507081541 | 63 | 0 | 0.0 | 3.0 | 0.15 | 1.61 | 0.70 | 95 | 1010.6 |
| 20260507081032 | 63 | 97 | 0.0 | 3.0 | 0.14 | 1.59 | 0.68 | 95 | 1010.4 |
| 20260507080531 | 63 | 0 | 0.0 | 2.0 | 0.14 | 1.58 | 0.67 | 95 | 1010.9 |
| 20260507080043 | 63 | 97 | 0.0 | 1.0 | 0.15 | 1.57 | 0.66 | 95 | 1010.7 |
| 20260507075532 | 63 | 0 | 0.0 | 1.0 | 0.15 | 1.56 | 0.65 | 95 | 1011.0 |
| 20260507075036 | 63 | 0 | 0.0 | 3.0 | 0.15 | 1.55 | 0.64 | 95 | 1010.9 |
| 20260507074543 | 63 | 0 | 0.0 | 4.0 | 0.14 | 1.53 | 0.62 | 95 | 1010.9 |
| 20260507074031 | 63 | 97 | 1.0 | 4.0 | 0.15 | 1.52 | 0.61 | 95 | 1010.8 |
| 20260507073532 | 63 | 73 | 0.0 | 3.0 | 0.15 | 1.51 | 0.60 | 95 | 1010.7 |
| 20260507073043 | 63 | 0 | 0.0 | 3.0 | 0.15 | 1.50 | 0.58 | 95 | 1011.0 |
| 20260507072535 | 63 | 273 | 1.0 | 4.0 | 0.15 | 1.48 | 0.57 | 95 | 1011.2 |
| 20260507072030 | 63 | 274 | 1.0 | 4.0 | 0.15 | 1.47 | 0.56 | 95 | 1011.5 |
| 20260507071542 | 63 | 40 | 0.0 | 5.0 | 0.16 | 1.46 | 0.55 | 95 | 1011.6 |
| 20260507071031 | 63 | 54 | 2.0 | 5.0 | 0.16 | 1.45 | 0.54 | 95 | 1011.5 |
| 20260507070533 | 63 | 61 | 2.0 | 5.0 | 0.16 | 1.44 | 0.52 | 95 | 1011.5 |
| 20260507070044 | 63 | 196 | 0.0 | 3.0 | 0.16 | 1.42 | 0.51 | 95 | 1011.6 |
| 20260507065531 | 63 | 196 | 0.0 | 3.0 | 0.16 | 1.41 | 0.50 | 95 | 1011.6 |
| 20260507065030 | 63 | 196 | 2.0 | 3.0 | 0.17 | 1.40 | 0.49 | 95 | 1011.3 |
| 20260507064541 | 63 | 0 | 0.0 | 3.0 | 0.17 | 1.39 | 0.48 | 95 | 1011.6 |
| 20260507064032 | 63 | 199 | 1.0 | 4.0 | 0.17 | 1.37 | 0.46 | 95 | 1011.8 |
| 20260507063531 | 63 | 0 | 0.0 | 4.0 | 0.17 | 1.36 | 0.45 | 95 | 1011.6 |
| 20260507063046 | 63 | 163 | 1.0 | 4.0 | 0.18 | 1.35 | 0.44 | 95 | 1011.6 |
| 20260507062530 | 63 | 0 | 1.0 | 5.0 | 0.17 | 1.33 | 0.42 | 95 | 1011.4 |
| 20260507062032 | 63 | 0 | 1.0 | 5.0 | 0.18 | 1.32 | 0.41 | 95 | 1011.6 |
| 20260507061546 | 63 | 46 | 2.0 | 5.0 | 0.17 | 1.30 | 0.39 | 94 | 1011.8 |
| 20260507061029 | 63 | 91 | 0.0 | 2.0 | 0.18 | 1.29 | 0.38 | 94 | 1011.9 |
| 20260507060531 | 63 | 0 | 0.0 | 3.0 | 0.17 | 1.27 | 0.36 | 95 | 1012.1 |
| 20260507060051 | 63 | 92 | 0.0 | 3.0 | 0.18 | 1.26 | 0.35 | 94 | 1012.1 |
| 20260507055534 | 63 | 92 | 1.0 | 3.0 | 0.19 | 1.25 | 0.34 | 95 | 1012.3 |
| 20260507055029 | 63 | 92 | 0.0 | 2.0 | 0.18 | 1.23 | 0.32 | 95 | 1012.4 |
| 20260507054547 | 63 | 92 | 0.0 | 3.0 | 0.19 | 1.22 | 0.31 | 94 | 1012.3 |
| 20260507054032 | 63 | 0 | 0.0 | 4.0 | 0.18 | 1.20 | 0.29 | 94 | 1012.4 |
| 20260507053530 | 63 | 0 | 0.0 | 6.0 | 0.19 | 1.19 | 0.28 | 94 | 1012.4 |
| 20260507053047 | 63 | 123 | 2.0 | 6.0 | 0.18 | 1.16 | 0.26 | 94 | 1012.1 |
| 20260507052530 | 63 | 128 | 1.0 | 4.0 | 0.19 | 1.16 | 0.25 | 94 | 1012.3 |
| 20260507052031 | 63 | 0 | 1.0 | 3.0 | 0.18 | 1.14 | 0.23 | 94 | 1012.7 |
| 20260507051549 | 63 | 0 | 0.0 | 3.0 | 0.17 | 1.12 | 0.21 | 94 | 1012.8 |
| 20260507051034 | 63 | 122 | 1.0 | 2.0 | 0.18 | 1.11 | 0.20 | 94 | 1012.7 |
| 20260507050531 | 63 | 122 | 0.0 | 2.0 | 0.17 | 1.09 | 0.18 | 94 | 1012.9 |